This is the latest recevied weather packets stored in our database for station/object 4S6DRJ-13. If no packets are shown the sender has not sent any weather packets the latest 10 day(s).
| Time | Temp. | Humidity | Pressure | Rain* | Wind** | Luminosity | Snow |
|---|---|---|---|---|---|---|---|
| 1788213553 | 26.67° C | 88% | 1007.5 hPa | 0 mm | 0.89 m/s, 122° | 0 W/m² | - |
| 1788213492 | 26.67° C | 88% | 1007.3 hPa | 0 mm | 0.45 m/s, 111° | 0 W/m² | - |
| 1788213431 | 26.67° C | 88% | 1007.5 hPa | 0 mm | 0.45 m/s, 134° | 0 W/m² | - |
| 1788213370 | 26.67° C | 88% | 1007.5 hPa | 0 mm | 0.89 m/s, 137° | 0 W/m² | - |
| 1788213309 | 26.67° C | 88% | 1007.4 hPa | 0 mm | 0.89 m/s, 141° | 0 W/m² | - |
| 1788213248 | 26.67° C | 88% | 1007.4 hPa | 0 mm | 0 m/s | 0 W/m² | - |
| 1788213187 | 26.67° C | 88% | 1007.4 hPa | 0 mm | 0.89 m/s, 132° | 0 W/m² | - |
| 1788213126 | 26.67° C | 88% | 1007.5 hPa | 0 mm | 0.89 m/s, 126° | 0 W/m² | - |
| 1788213065 | 26.67° C | 88% | 1007.5 hPa | 0 mm | 0.89 m/s, 122° | 0 W/m² | - |
| 1788213005 | 26.67° C | 88% | 1007.3 hPa | 0 mm | 0.45 m/s, 169° | 0 W/m² | - |
| 1788212943 | 26.67° C | 88% | 1007.6 hPa | 0 mm | 0 m/s | 0 W/m² | - |
| 1788212882 | 26.67° C | 88% | 1007.6 hPa | 0 mm | 0.89 m/s, 145° | 0 W/m² | - |
| 1788212821 | 26.67° C | 88% | 1007.7 hPa | 0 mm | 0.45 m/s, 166° | 0 W/m² | - |
| 1788212760 | 26.67° C | 88% | 1007.5 hPa | 0 mm | 0.89 m/s, 159° | 0 W/m² | - |
| 1788212699 | 26.67° C | 88% | 1007.5 hPa | 0 mm | 0.89 m/s, 159° | 0 W/m² | - |
| 1788212638 | 26.67° C | 88% | 1007.6 hPa | 0 mm | 0.89 m/s, 179° | 0 W/m² | - |
| 1788212577 | 26.67° C | 88% | 1007.5 hPa | 0 mm | 0.89 m/s, 148° | 0 W/m² | - |
| 1788212516 | 26.67° C | 88% | 1007.6 hPa | 0 mm | 0.89 m/s, 114° | 0 W/m² | - |
| 1788212455 | 27.22° C | 88% | 1007.6 hPa | 0 mm | 0.89 m/s, 121° | 0 W/m² | - |
| 1788212394 | 27.22° C | 88% | 1007.6 hPa | 0 mm | 1.34 m/s, 124° | 0 W/m² | - |
| 1788212333 | 27.22° C | 88% | 1007.8 hPa | 0 mm | 0.45 m/s, 167° | 0 W/m² | - |
| 1788212272 | 27.22° C | 88% | 1007.8 hPa | 0 mm | 0.89 m/s, 170° | 0 W/m² | - |
| 1788212211 | 27.22° C | 88% | 1007.6 hPa | 0 mm | 0.89 m/s, 144° | 0 W/m² | - |
| 1788212150 | 27.22° C | 88% | 1007.9 hPa | 0 mm | 0.89 m/s, 140° | 0 W/m² | - |
| 1788212089 | 27.22° C | 88% | 1007.6 hPa | 0 mm | 0.89 m/s, 158° | 0 W/m² | - |
* Rain latest hour (hover to see other rain measurements)
** Current wind speed in m/s (hover to see current wind gust speed)